When you browse on this site, cookies collect data to enhance your experience and personalize the content and advertising you see.
Visit our Privacy Policy to learn more. By continuing to use the site, you agree to this use of cookies and data.
  • In Hungary
  • List of Countries
  • For 7 days
  • Water Temperature
  • Satellite Maps
  • Weather Map
  • News
  • Weather Widgets
  • user-avatar
    Login

    Hourly Weather Mostoles

    Today, 19 January, Saturday

    Time Temperature Precipitation Wind Pressure Humidity
    00:00 +3°C° 0 mm 1 mps 703 mmHg 69%
    01:00 +2°C° 0 mm 1 mps 703 mmHg 71%
    02:00 +2°C° 0 mm 1 mps 703 mmHg 72%
    03:00 +2°C° 0 mm 1 mps 703 mmHg 74%
    04:00 +2°C° 0 mm 1 mps 703 mmHg 75%
    05:00 +1°C° 0 mm 1 mps 703 mmHg 77%
    06:00 +1°C° 0 mm 1 mps 702 mmHg 78%
    07:00 +2°C° 0 mm 1 mps 702 mmHg 74%
    08:00 +2°C° 0 mm 1 mps 702 mmHg 71%
    09:00 +3°C° 0 mm 1 mps 702 mmHg 67%
    10:00 +4°C° 0 mm 2 mps 702 mmHg 63%
    11:00 +5°C° 0 mm 2 mps 702 mmHg 60%
    12:00 +5°C° 0 mm 3 mps 701 mmHg 56%
    13:00 +5°C° 0.2 mm 3 mps 701 mmHg 59%
    14:00 +5°C° 0.2 mm 4 mps 700 mmHg 62%
    15:00 +5°C° 0.2 mm 4 mps 699 mmHg 65%
    16:00 +5°C° 1.2 mm 4 mps 699 mmHg 73%
    17:00 +4°C° 1.2 mm 4 mps 698 mmHg 81%
    18:00 +4°C° 1.2 mm 4 mps 698 mmHg 88%
    19:00 +4°C° 0.3 mm 3 mps 698 mmHg 90%
    20:00 +4°C° 0.3 mm 3 mps 697 mmHg 91%
    21:00 +4°C° 0.3 mm 3 mps 697 mmHg 93%
    22:00 +3°C° 0 mm 3 mps 697 mmHg 93%
    23:00 +3°C° 0 mm 3 mps 696 mmHg 94%

    Tomorrow, 20 January, Sunday

    Time Temperature Precipitation Wind Pressure Humidity
    00:00 +3°C° 0 mm 3 mps 696 mmHg 94%
    01:00 +3°C° 0 mm 3 mps 696 mmHg 94%
    02:00 +4°C° 0 mm 3 mps 696 mmHg 94%
    03:00 +4°C° 0 mm 3 mps 696 mmHg 93%
    04:00 +4°C° 0.3 mm 3 mps 696 mmHg 93%
    05:00 +4°C° 0.3 mm 3 mps 696 mmHg 94%
    06:00 +4°C° 0.3 mm 3 mps 696 mmHg 94%
    07:00 +4°C° 1 mm 3 mps 697 mmHg 89%
    08:00 +5°C° 1 mm 4 mps 698 mmHg 84%
    09:00 +5°C° 1 mm 4 mps 698 mmHg 79%
    10:00 +6°C° 0 mm 5 mps 699 mmHg 70%
    11:00 +7°C° 0 mm 5 mps 700 mmHg 61%
    12:00 +9°C° 0 mm 6 mps 700 mmHg 52%
    13:00 +9°C° 0 mm 6 mps 700 mmHg 50%
    14:00 +9°C° 0 mm 6 mps 700 mmHg 48%
    15:00 +9°C° 0 mm 6 mps 700 mmHg 46%
    16:00 +8°C° 0 mm 5 mps 701 mmHg 51%
    17:00 +7°C° 0 mm 4 mps 701 mmHg 57%
    18:00 +5°C° 0 mm 3 mps 702 mmHg 62%
    19:00 +5°C° 0 mm 3 mps 702 mmHg 64%
    20:00 +5°C° 0 mm 2 mps 703 mmHg 67%
    21:00 +5°C° 0 mm 2 mps 703 mmHg 70%
    22:00 +4°C° 0 mm 2 mps 703 mmHg 72%
    23:00 +4°C° 0 mm 2 mps 704 mmHg 74%

    Day after tomorrow, 21 January, Monday

    Time Temperature Precipitation Wind Pressure Humidity
    00:00 +3°C° 0 mm 2 mps 704 mmHg 76%
    01:00 +3°C° 0 mm 2 mps 704 mmHg 78%
    02:00 +3°C° 0 mm 2 mps 704 mmHg 79%
    03:00 +3°C° 0 mm 2 mps 704 mmHg 81%
    04:00 +2°C° 0 mm 2 mps 704 mmHg 81%
    05:00 +2°C° 0 mm 2 mps 704 mmHg 81%
    06:00 +2°C° 0 mm 2 mps 704 mmHg 81%
    07:00 +3°C° 0 mm 2 mps 705 mmHg 77%
    08:00 +3°C° 0 mm 2 mps 705 mmHg 74%
    09:00 +4°C° 0 mm 2 mps 706 mmHg 70%
    10:00 +5°C° 0 mm 2 mps 706 mmHg 63%
    11:00 +7°C° 0 mm 3 mps 706 mmHg 55%
    12:00 +7°C° 0 mm 4 mps 706 mmHg 47%
    13:00 +7°C° 0 mm 4 mps 706 mmHg 46%
    14:00 +7°C° 0 mm 4 mps 706 mmHg 45%
    15:00 +8°C° 0 mm 4 mps 705 mmHg 44%
    16:00 +7°C° 0 mm 3 mps 706 mmHg 49%
    17:00 +5°C° 0 mm 3 mps 706 mmHg 54%
    18:00 +5°C° 0 mm 2 mps 706 mmHg 59%
    19:00 +4°C° 0 mm 2 mps 706 mmHg 63%
    20:00 +4°C° 0 mm 2 mps 706 mmHg 67%
    21:00 +4°C° 0 mm 1 mps 706 mmHg 71%
    22:00 +4°C° 0 mm 1 mps 706 mmHg 73%
    23:00 +3°C° 0 mm 1 mps 706 mmHg 74%

    22 January, Tuesday

    Time Temperature Precipitation Wind Pressure Humidity
    00:00 +3°C° 0 mm 1 mps 706 mmHg 76%
    01:00 +3°C° 0 mm 1 mps 705 mmHg 75%
    02:00 +1°C° 0 mm 2 mps 705 mmHg 75%
    03:00 +1°C° 0 mm 2 mps 705 mmHg 75%
    04:00 +1°C° 0 mm 2 mps 704 mmHg 73%
    05:00 +1°C° 0 mm 2 mps 704 mmHg 70%
    06:00 +2°C° 0 mm 2 mps 704 mmHg 68%
    07:00 +1°C° 0 mm 3 mps 703 mmHg 68%
    08:00 +1°C° 0 mm 4 mps 703 mmHg 69%
    09:00 +1°C° 0 mm 4 mps 703 mmHg 69%
    10:00 +3°C° 0 mm 5 mps 702 mmHg 67%
    11:00 +5°C° 0 mm 5 mps 702 mmHg 65%
    12:00 +5°C° 0 mm 6 mps 702 mmHg 62%
    13:00 +5°C° 0.1 mm 6 mps 701 mmHg 59%
    14:00 +6°C° 0.1 mm 7 mps 700 mmHg 56%
    15:00 +6°C° 0.1 mm 7 mps 700 mmHg 53%
    16:00 +5°C° 0 mm 7 mps 700 mmHg 55%
    17:00 +4°C° 0 mm 6 mps 699 mmHg 58%
    18:00 +3°C° 0 mm 5 mps 699 mmHg 60%
    19:00 +3°C° 0 mm 5 mps 699 mmHg 63%
    20:00 +2°C° 0 mm 5 mps 699 mmHg 66%
    21:00 +2°C° 0 mm 5 mps 699 mmHg 69%
    22:00 +1°C° 0 mm 5 mps 699 mmHg 69%
    23:00 +1°C° 0 mm 6 mps 699 mmHg 69%

    23 January, Wednesday

    Time Temperature Precipitation Wind Pressure Humidity
    00:00 +1°C° 0 mm 6 mps 699 mmHg 69%
    01:00 +1°C° 0 mm 6 mps 699 mmHg 68%
    02:00 +1°C° 0 mm 6 mps 698 mmHg 68%
    03:00 -1°C° 0 mm 6 mps 698 mmHg 67%
    04:00 -1°C° 0 mm 6 mps 698 mmHg 67%
    05:00 -1°C° 0 mm 6 mps 698 mmHg 67%
    06:00 -1°C° 0 mm 6 mps 698 mmHg 68%
    07:00 -1°C° 0 mm 6 mps 698 mmHg 67%
    08:00 +1°C° 0 mm 6 mps 697 mmHg 67%
    09:00 0°C° 0 mm 7 mps 697 mmHg 67%
    10:00 +2°C° 0.2 mm 7 mps 696 mmHg 65%
    11:00 +4°C° 0.2 mm 8 mps 696 mmHg 64%
    12:00 +5°C° 0.2 mm 9 mps 695 mmHg 62%
    13:00 +6°C° 0 mm 9 mps 695 mmHg 59%
    14:00 +6°C° 0 mm 9 mps 694 mmHg 55%
    15:00 +7°C° 0 mm 10 mps 694 mmHg 51%
    16:00 +6°C° 0.1 mm 8 mps 694 mmHg 53%
    17:00 +5°C° 0.1 mm 7 mps 695 mmHg 55%
    18:00 +4°C° 0.1 mm 6 mps 695 mmHg 57%
    19:00 +3°C° 0 mm 6 mps 696 mmHg 56%
    20:00 +2°C° 0 mm 6 mps 697 mmHg 54%
    21:00 +1°C° 0 mm 6 mps 697 mmHg 52%
    22:00 -1°C° 0 mm 6 mps 698 mmHg 54%
    23:00 0°C° 0 mm 5 mps 698 mmHg 55%

    24 January, Thursday

    Time Temperature Precipitation Wind Pressure Humidity
    00:00 -1°C° 0 mm 4 mps 699 mmHg 56%
    01:00 -1°C° 0 mm 4 mps 699 mmHg 58%
    02:00 -2°C° 0 mm 4 mps 699 mmHg 59%
    03:00 -2°C° 0 mm 4 mps 699 mmHg 60%
    04:00 -2°C° 0 mm 4 mps 699 mmHg 60%
    05:00 -3°C° 0 mm 4 mps 700 mmHg 61%
    06:00 -2°C° 0 mm 3 mps 700 mmHg 61%
    07:00 -2°C° 0 mm 3 mps 700 mmHg 59%
    08:00 -1°C° 0 mm 3 mps 700 mmHg 57%
    09:00 -1°C° 0 mm 3 mps 701 mmHg 56%
    10:00 0°C° 0 mm 3 mps 701 mmHg 51%
    11:00 +1°C° 0 mm 4 mps 701 mmHg 47%
    12:00 +3°C° 0 mm 4 mps 701 mmHg 43%
    13:00 +3°C° 0 mm 4 mps 701 mmHg 43%
    14:00 +3°C° 0 mm 4 mps 701 mmHg 42%
    15:00 +4°C° 0 mm 4 mps 700 mmHg 42%
    16:00 +3°C° 0 mm 4 mps 701 mmHg 46%
    17:00 +1°C° 0 mm 4 mps 701 mmHg 50%
    18:00 +1°C° 0 mm 3 mps 701 mmHg 55%
    19:00 0°C° 0 mm 3 mps 702 mmHg 57%
    20:00 -1°C° 0 mm 3 mps 702 mmHg 60%
    21:00 -1°C° 0 mm 2 mps 702 mmHg 63%
    22:00 -2°C° 0 mm 2 mps 702 mmHg 65%
    23:00 -2°C° 0 mm 2 mps 703 mmHg 67%
    Show more